• Currently

    Reported at Minneapolis, Minneapolis-St. Paul International Airport, MN
    9:53 AM CST SUN JUL 23 2017
  • 73°F23°C
  • Mostly Cloudy
    Mostly Cloudy
  • Feels Like:73°F23°CDew Point:59°F15°CHumidity:61% Winds:NNW 12 mph 19 kph
    Pressure:29.91 in1013 hPaVisibility:10.00 miles16090.00 meters
Time Weather Temp Dew Point
Humidity Winds Visibility Pressure Precipitation
1 hr 24 hr
Wednesday, July 12
23:53 23:53 Cloudy Cloudy 78°F26°C 67°F19°C 69% SE 8 mphSE 13 kph 10.0 miles16.1 km 29.74 in1007 hPa 0.00 in0.00 mm --
22:53 22:53 Cloudy Cloudy 78°F26°C 66°F19°C 67% SE 7 mphSE 11 kph 10.0 miles16.1 km 29.74 in1007 hPa 0.00 in0.00 mm --
21:53 21:53 Cloudy Cloudy 80°F27°C 66°F19°C 62% SE 5 mphSE 7 kph 10.0 miles16.1 km 29.77 in1008 hPa 0.00 in0.00 mm --
20:53 20:53 Partly Cloudy Partly Cloudy 82°F28°C 66°F19°C 58% SSE 7 mphSSE 11 kph 10.0 miles16.1 km 29.77 in1008 hPa 0.00 in0.00 mm --
19:53 19:53 Sunny Sunny 83°F28°C 66°F19°C 57% SSE 9 mphSSE 15 kph 10.0 miles16.1 km 29.77 in1008 hPa 0.00 in0.00 mm --
18:53 18:53 Mostly Sunny Mostly Sunny 85°F29°C 66°F19°C 53% S 9 mphS 15 kph 10.0 miles16.1 km 29.77 in1008 hPa 0.00 in0.00 mm --
17:53 17:53 Mostly Sunny Mostly Sunny 86°F30°C 62°F17°C 45% S 9 mphS 15 kph 10.0 miles16.1 km 29.77 in1008 hPa 0.00 in0.00 mm --
16:53 16:53 Mostly Sunny Mostly Sunny 86°F30°C 64°F18°C 48% S 10 mphS 17 kph 10.0 miles16.1 km 29.8 in1009 hPa 0.00 in0.00 mm --
15:53 15:53 Mostly Cloudy Mostly Cloudy 84°F29°C 65°F18°C 53% SSE 8 mphSSE 13 kph 10.0 miles16.1 km 29.8 in1009 hPa 0.00 in0.00 mm --
14:53 14:53 Mostly Cloudy Mostly Cloudy 84°F29°C 63°F17°C 49% SSW 9 mphSSW 15 kph 10.0 miles16.1 km 29.83 in1010 hPa 0.00 in0.00 mm --
13:53 13:53 Mostly Cloudy Mostly Cloudy 82°F28°C 64°F18°C 55% N 7 mphN 11 kph 10.0 miles16.1 km 29.83 in1010 hPa 0.00 in0.00 mm --
12:53 12:53 Cloudy Cloudy 80°F27°C 62°F17°C 54% SSE 12 mphSSE 19 kph 10.0 miles16.1 km 29.83 in1010 hPa 0.00 in0.00 mm --
11:53 11:53 Mostly Cloudy Mostly Cloudy 80°F27°C 62°F17°C 54% SSE 8 mphSSE 13 kph 10.0 miles16.1 km 29.83 in1010 hPa 0.00 in0.00 mm --
10:53 10:53 Mostly Cloudy Mostly Cloudy 81°F27°C 62°F17°C 53% E 9 mphE 15 kph 10.0 miles16.1 km 29.8 in1009 hPa 0.00 in0.00 mm --
09:53 09:53 Partly Cloudy Partly Cloudy 79°F26°C 62°F17°C 56% ESE 9 mphESE 15 kph 10.0 miles16.1 km 29.83 in1010 hPa 0.00 in0.00 mm --
08:53 08:53 Mostly Sunny Mostly Sunny 76°F24°C 61°F16°C 60% ESE 7 mphESE 11 kph 10.0 miles16.1 km 29.85 in1011 hPa 0.00 in0.00 mm --
07:53 07:53 Mostly Sunny Mostly Sunny 73°F23°C 63°F17°C 71% N/AN/A 10.0 miles16.1 km 29.85 in1011 hPa 0.00 in0.00 mm --
06:53 06:53 Mostly Sunny Mostly Sunny 71°F22°C 61°F16°C 71% CalmCalm 10.0 miles16.1 km 29.88 in1012 hPa 0.00 in0.00 mm --
05:53 05:53 Mostly Sunny Mostly Sunny 67°F19°C 60°F16°C 79% CalmCalm 10.0 miles16.1 km 29.88 in1012 hPa 0.00 in0.00 mm --
04:53 04:53 Mostly Clear Mostly Clear 68°F20°C 60°F16°C 76% CalmCalm 10.0 miles16.1 km 29.85 in1011 hPa 0.00 in0.00 mm --
03:53 03:53 Partly Cloudy Partly Cloudy 67°F19°C 59°F15°C 76% CalmCalm 10.0 miles16.1 km 29.85 in1011 hPa 0.00 in0.00 mm --
02:53 02:53 Partly Cloudy Partly Cloudy 69°F21°C 60°F16°C 73% CalmCalm 10.0 miles16.1 km 29.85 in1011 hPa 0.00 in0.00 mm --
01:53 01:53 Partly Cloudy Partly Cloudy 71°F22°C 58°F14°C 63% CalmCalm 10.0 miles16.1 km 29.85 in1011 hPa 0.00 in0.00 mm --
00:53 00:53 Clear Clear 73°F23°C 60°F16°C 64% CalmCalm 10.0 miles16.1 km 29.85 in1011 hPa 0.00 in0.00 mm --